| time (UTC) | temp F | wind direction | speed knots | gust knots | rain 1hr in | rain 24hr in | rain mn in | humidity % | barometer mb |
| 20260905093819 | 60 | 263 | 6.1 | 10.4 | 0.00 | 0.02 | 0.00 | 73 | 1020.2 |
| 20260905093320 | 60 | 251 | 6.1 | 14.8 | 0.00 | 0.02 | 0.00 | 73 | 1020.1 |
| 20260905092820 | 60 | 245 | 5.2 | 11.3 | 0.00 | 0.02 | 0.00 | 73 | 1020.1 |
| 20260905090819 | 60 | 254 | 6.1 | 11.3 | 0.00 | 0.02 | 0.00 | 74 | 1019.8 |
| 20260905090319 | 60 | 247 | 6.1 | 10.4 | 0.00 | 0.02 | 0.00 | 75 | 1019.7 |
| 20260905085820 | 59 | 248 | 4.3 | 8.7 | 0.00 | 0.02 | 0.00 | 76 | 1019.6 |
| 20260905085319 | 59 | 263 | 7.0 | 12.2 | 0.00 | 0.02 | 0.00 | 76 | 1019.6 |
| 20260905084820 | 58 | 251 | 7.0 | 10.4 | 0.00 | 0.02 | 0.00 | 76 | 1019.6 |
| 20260905083820 | 59 | 244 | 7.0 | 13.0 | 0.00 | 0.02 | 0.00 | 77 | 1019.4 |
| 20260905082820 | 58 | 251 | 6.1 | 13.9 | 0.00 | 0.02 | 0.00 | 79 | 1019.2 |
| 20260905082319 | 58 | 258 | 5.2 | 13.0 | 0.00 | 0.02 | 0.00 | 80 | 1019.2 |
| 20260905081819 | 57 | 248 | 6.1 | 11.3 | 0.00 | 0.02 | 0.00 | 80 | 1019.2 |
| 20260905081319 | 57 | 242 | 5.2 | 8.7 | 0.00 | 0.02 | 0.00 | 81 | 1019.3 |
| 20260905080819 | 57 | 242 | 4.3 | 10.4 | 0.00 | 0.02 | 0.00 | 81 | 1019.3 |
| 20260905080320 | 57 | 240 | 4.3 | 7.0 | 0.00 | 0.02 | 0.00 | 81 | 1019.2 |
| 20260905075819 | 56 | 241 | 4.3 | 7.8 | 0.00 | 0.02 | 0.00 | 81 | 1019.2 |
| 20260905075319 | 56 | 240 | 2.6 | 6.1 | 0.00 | 0.02 | 0.00 | 82 | 1019.1 |
| 20260905074820 | 56 | 251 | 3.5 | 7.0 | 0.00 | 0.02 | 0.00 | 82 | 1019.0 |
| 20260905074319 | 56 | 249 | 4.3 | 10.4 | 0.00 | 0.02 | 0.00 | 82 | 1018.8 |
| 20260905072318 | 56 | 260 | 3.5 | 6.1 | 0.00 | 0.02 | 0.00 | 84 | 1018.6 |
| 20260905071819 | 55 | 249 | 1.7 | 5.2 | 0.00 | 0.02 | 0.00 | 84 | 1018.6 |
| 20260905071319 | 55 | 254 | 2.6 | 6.1 | 0.00 | 0.02 | 0.00 | 84 | 1018.5 |
| 20260905070319 | 55 | 249 | 5.2 | 10.4 | 0.00 | 0.02 | 0.00 | 84 | 1018.5 |
| 20260905065820 | 55 | 250 | 2.6 | 4.3 | 0.00 | 0.02 | 0.00 | 84 | 1018.4 |
| 20260905065320 | 55 | 235 | 2.6 | 5.2 | 0.00 | 0.02 | 0.00 | 84 | 1018.3 |
| 20260905064820 | 55 | 256 | 2.6 | 5.2 | 0.00 | 0.02 | 0.00 | 84 | 1018.2 |
| 20260905063819 | 55 | 252 | 3.5 | 7.0 | 0.00 | 0.02 | 0.00 | 84 | 1018.1 |
| 20260905063318 | 55 | 237 | 2.6 | 7.0 | 0.00 | 0.02 | 0.00 | 84 | 1017.9 |
| 20260905062820 | 55 | 245 | 5.2 | 7.8 | 0.00 | 0.02 | 0.00 | 84 | 1017.9 |
| 20260905062319 | 55 | 244 | 2.6 | 8.7 | 0.00 | 0.02 | 0.00 | 84 | 1017.9 |
| 20260905061819 | 55 | 226 | 1.7 | 4.3 | 0.00 | 0.02 | 0.00 | 84 | 1017.9 |
| 20260905061320 | 54 | 243 | 2.6 | 7.0 | 0.00 | 0.02 | 0.00 | 85 | 1017.7 |
| 20260905060819 | 54 | 275 | 2.6 | 8.7 | 0.00 | 0.02 | 0.00 | 85 | 1017.7 |
| 20260905060320 | 54 | 248 | 1.7 | 8.7 | 0.00 | 0.02 | 0.00 | 85 | 1017.6 |
| 20260905055819 | 54 | 252 | 1.7 | 6.1 | 0.00 | 0.02 | 0.00 | 85 | 1017.5 |
| 20260905055319 | 54 | 251 | 2.6 | 4.3 | 0.00 | 0.02 | 0.00 | 85 | 1017.4 |
| 20260905054819 | 54 | 246 | 1.7 | 5.2 | 0.00 | 0.02 | 0.00 | 84 | 1017.3 |
| 20260905054319 | 55 | 257 | 1.7 | 2.6 | 0.00 | 0.02 | 0.00 | 84 | 1017.3 |
| 20260905053819 | 55 | 246 | 1.7 | 5.2 | 0.00 | 0.02 | 0.00 | 84 | 1017.3 |
| 20260905052819 | 55 | 251 | 4.3 | 7.8 | 0.00 | 0.02 | 0.00 | 83 | 1017.1 |
| 20260905052319 | 55 | 280 | 1.7 | 7.8 | 0.00 | 0.02 | 0.00 | 83 | 1017.1 |
| 20260905051819 | 55 | 258 | 3.5 | 7.8 | 0.00 | 0.02 | 0.00 | 83 | 1017.1 |
| 20260905051319 | 55 | 260 | 2.6 | 7.0 | 0.00 | 0.02 | 0.00 | 81 | 1017.0 |
| 20260905050819 | 55 | 230 | 1.7 | 7.8 | 0.00 | 0.02 | 0.00 | 81 | 1016.9 |
| 20260905050318 | 55 | 269 | 2.6 | 6.1 | 0.00 | 0.02 | 0.00 | 82 | 1016.8 |
| 20260905045819 | 55 | 242 | 0.9 | 7.0 | 0.00 | 0.02 | 0.00 | 82 | 1016.8 |
| 20260905045319 | 55 | 273 | 1.7 | 10.4 | 0.00 | 0.02 | 0.00 | 82 | 1016.7 |
| 20260905044820 | 55 | 268 | 2.6 | 7.8 | 0.00 | 0.02 | 0.00 | 82 | 1016.5 |
| 20260905044319 | 55 | 245 | 4.3 | 8.7 | 0.00 | 0.02 | 0.00 | 83 | 1016.4 |
| 20260905043819 | 55 | 272 | 3.5 | 8.7 | 0.00 | 0.02 | 0.00 | 83 | 1016.3 |
| 20260905043319 | 55 | 245 | 2.6 | 7.0 | 0.00 | 0.02 | 0.00 | 83 | 1016.3 |
| 20260905042819 | 55 | 259 | 6.1 | 10.4 | 0.00 | 0.02 | 0.00 | 83 | 1016.3 |
| 20260905042319 | 55 | 252 | 5.2 | 10.4 | 0.00 | 0.02 | 0.00 | 83 | 1016.2 |
| 20260905041819 | 55 | 254 | 4.3 | 10.4 | 0.00 | 0.02 | 0.00 | 83 | 1016.1 |
| 20260905041319 | 55 | 248 | 5.2 | 10.4 | 0.00 | 0.02 | 0.00 | 82 | 1016.0 |
| 20260905040820 | 55 | 232 | 6.1 | 11.3 | 0.00 | 0.02 | 0.00 | 82 | 1015.8 |
| 20260905040319 | 55 | 229 | 5.2 | 10.4 | 0.00 | 0.02 | 0.00 | 82 | 1015.7 |
| 20260905035819 | 55 | 241 | 5.2 | 10.4 | 0.00 | 0.02 | 0.00 | 82 | 1015.7 |
| 20260905034819 | 55 | 246 | 7.8 | 12.2 | 0.00 | 0.02 | 0.00 | 82 | 1015.5 |
| 20260905034319 | 55 | 255 | 5.2 | 13.0 | 0.00 | 0.02 | 0.00 | 83 | 1015.4 |
| 20260905033319 | 55 | 242 | 6.1 | 17.4 | 0.00 | 0.02 | 0.00 | 82 | 1015.4 |
| 20260905032819 | 55 | 245 | 7.8 | 12.2 | 0.00 | 0.02 | 0.00 | 83 | 1015.3 |
| 20260905032318 | 55 | 270 | 5.2 | 11.3 | 0.00 | 0.02 | 0.00 | 83 | 1015.3 |
| 20260905031319 | 55 | 251 | 5.2 | 10.4 | 0.00 | 0.02 | 0.00 | 83 | 1015.1 |
| 20260905030319 | 55 | 244 | 8.7 | 14.8 | 0.00 | 0.02 | 0.00 | 83 | 1015.0 |
| 20260905025819 | 55 | 251 | 6.1 | 10.4 | 0.00 | 0.02 | 0.00 | 83 | 1014.9 |
| 20260905025319 | 55 | 264 | 6.1 | 10.4 | 0.00 | 0.02 | 0.00 | 83 | 1015.0 |
| 20260905024818 | 55 | 245 | 5.2 | 12.2 | 0.00 | 0.02 | 0.00 | 83 | 1015.0 |
| 20260905024320 | 55 | 267 | 5.2 | 7.8 | 0.00 | 0.02 | 0.00 | 82 | 1015.0 |
| 20260905023319 | 56 | 244 | 5.2 | 10.4 | 0.00 | 0.02 | 0.00 | 82 | 1014.8 |
| 20260905022820 | 56 | 249 | 5.2 | 11.3 | 0.00 | 0.02 | 0.00 | 82 | 1014.8 |
| 20260905022319 | 56 | 250 | 6.1 | 12.2 | 0.00 | 0.02 | 0.00 | 82 | 1014.8 |
| 20260905021819 | 56 | 250 | 5.2 | 12.2 | 0.00 | 0.02 | 0.00 | 82 | 1014.7 |
| 20260905021319 | 56 | 257 | 5.2 | 11.3 | 0.00 | 0.02 | 0.00 | 82 | 1014.6 |
| 20260905020819 | 56 | 248 | 5.2 | 11.3 | 0.00 | 0.02 | 0.00 | 82 | 1014.5 |
| 20260905020318 | 56 | 248 | 7.0 | 11.3 | 0.00 | 0.02 | 0.00 | 82 | 1014.5 |
| 20260905015319 | 56 | 267 | 5.2 | 13.9 | 0.00 | 0.02 | 0.00 | 83 | 1014.3 |
| 20260905014818 | 56 | 244 | 7.8 | 13.9 | 0.00 | 0.02 | 0.00 | 83 | 1014.3 |
| 20260905014320 | 56 | 257 | 6.1 | 12.2 | 0.00 | 0.03 | 0.00 | 83 | 1014.2 |
| 20260905013319 | 56 | 246 | 5.2 | 10.4 | 0.00 | 0.05 | 0.00 | 83 | 1014.1 |
| 20260905012819 | 56 | 248 | 8.7 | 18.2 | 0.00 | 0.06 | 0.00 | 82 | 1014.0 |
| 20260905012318 | 56 | 256 | 8.7 | 13.0 | 0.00 | 0.07 | 0.00 | 81 | 1013.9 |
| 20260905011819 | 56 | 253 | 6.1 | 15.6 | 0.00 | 0.09 | 0.00 | 81 | 1013.8 |
| 20260905011318 | 56 | 246 | 6.1 | 14.8 | 0.00 | 0.09 | 0.00 | 81 | 1013.7 |
| 20260905010820 | 56 | 265 | 6.1 | 13.0 | 0.00 | 0.11 | 0.00 | 81 | 1013.5 |
| 20260905005820 | 56 | 245 | 8.7 | 15.6 | 0.00 | 0.13 | 0.00 | 81 | 1013.4 |
| 20260905004819 | 56 | 246 | 7.8 | 13.9 | 0.00 | 0.14 | 0.00 | 82 | 1013.3 |
| 20260905004319 | 56 | 250 | 10.4 | 17.4 | 0.00 | 0.15 | 0.00 | 83 | 1013.5 |
| 20260905003820 | 56 | 247 | 7.8 | 18.2 | 0.00 | 0.16 | 0.00 | 83 | 1013.5 |
| 20260905002819 | 56 | 258 | 7.8 | 15.6 | 0.00 | 0.17 | 0.00 | 83 | 1013.5 |
| 20260905002318 | 56 | 250 | 7.8 | 25.2 | 0.00 | 0.18 | 0.00 | 83 | 1013.5 |
| 20260905001819 | 57 | 262 | 7.8 | 13.0 | 0.00 | 0.19 | 0.00 | 83 | 1013.4 |
| 20260905001319 | 57 | 254 | 6.1 | 17.4 | 0.00 | 0.20 | 0.00 | 83 | 1013.5 |
| 20260905000818 | 57 | 254 | 10.4 | 19.1 | 0.00 | 0.20 | 0.00 | 82 | 1013.4 |
| 20260905000319 | 57 | 260 | 8.7 | 14.8 | 0.00 | 0.20 | 0.00 | 82 | 1013.4 |
| 20260904235819 | 57 | 258 | 7.8 | 20.0 | 0.00 | 0.20 | 0.00 | 82 | 1013.3 |
| 20260904235319 | 57 | 247 | 7.0 | 15.6 | 0.00 | 0.21 | 0.00 | 82 | 1013.2 |
| 20260904234819 | 57 | 257 | 6.1 | 13.9 | 0.00 | 0.22 | 0.00 | 82 | 1013.2 |
| 20260904234318 | 57 | 246 | 8.7 | 18.2 | 0.00 | 0.23 | 0.00 | 82 | 1013.2 |
| 20260904233318 | 57 | 252 | 7.8 | 13.0 | 0.00 | 0.25 | 0.00 | 81 | 1013.2 |
| 20260904232819 | 57 | 231 | 7.0 | 17.4 | 0.00 | 0.27 | 0.00 | 81 | 1013.1 |
| 20260904232318 | 57 | 249 | 7.0 | 13.0 | 0.00 | 0.28 | 0.00 | 81 | 1013.1 |
| 20260904231818 | 57 | 259 | 7.8 | 12.2 | 0.00 | 0.29 | 0.00 | 80 | 1013.0 |
| 20260904231319 | 57 | 237 | 7.8 | 17.4 | 0.00 | 0.30 | 0.00 | 79 | 1013.1 |
| 20260904230902 | 57 | 258 | 7.0 | 10.4 | 0.00 | 0.31 | 0.00 | 79 | 1013.1 |
| 20260904225819 | 58 | 246 | 7.8 | 15.6 | 0.00 | 0.32 | 0.32 | 79 | 1013.0 |
| 20260904225318 | 58 | 268 | 5.2 | 13.0 | 0.00 | 0.33 | 0.32 | 79 | 1012.9 |
| 20260904224319 | 58 | 247 | 7.8 | 13.0 | 0.00 | 0.35 | 0.32 | 80 | 1012.8 |
| 20260904223819 | 58 | 254 | 6.1 | 11.3 | 0.00 | 0.36 | 0.32 | 80 | 1012.8 |
| 20260904222819 | 58 | 254 | 7.8 | 13.0 | 0.00 | 0.38 | 0.32 | 82 | 1012.7 |
| 20260904222318 | 58 | 239 | 6.1 | 13.9 | 0.00 | 0.39 | 0.32 | 82 | 1012.8 |
| 20260904221818 | 58 | 242 | 6.1 | 10.4 | 0.00 | 0.40 | 0.32 | 83 | 1012.8 |
| 20260904221319 | 58 | 246 | 5.2 | 13.9 | 0.00 | 0.41 | 0.32 | 84 | 1012.8 |
| 20260904220819 | 58 | 236 | 6.1 | 8.7 | 0.00 | 0.43 | 0.32 | 83 | 1012.8 |
| 20260904220319 | 58 | 248 | 5.2 | 8.7 | 0.00 | 0.44 | 0.32 | 83 | 1012.9 |
| 20260904215818 | 58 | 248 | 7.8 | 17.4 | 0.00 | 0.46 | 0.32 | 83 | 1012.9 |
| 20260904215318 | 58 | 254 | 5.2 | 14.8 | 0.00 | 0.46 | 0.32 | 82 | 1012.8 |
| 20260904214818 | 58 | 243 | 5.2 | 11.3 | 0.00 | 0.46 | 0.32 | 82 | 1012.8 |
| 20260904214318 | 58 | 247 | 7.0 | 13.0 | 0.00 | 0.47 | 0.32 | 82 | 1012.8 |
| 20260904213819 | 58 | 248 | 5.2 | 17.4 | 0.00 | 0.49 | 0.32 | 82 | 1012.8 |
| 20260904213318 | 58 | 256 | 5.2 | 10.4 | 0.00 | 0.50 | 0.32 | 82 | 1012.7 |
| 20260904212819 | 58 | 239 | 5.2 | 10.4 | 0.00 | 0.50 | 0.32 | 82 | 1012.7 |
| 20260904211818 | 58 | 264 | 6.1 | 10.4 | 0.00 | 0.51 | 0.32 | 84 | 1012.8 |
| 20260904211319 | 58 | 238 | 5.2 | 8.7 | 0.00 | 0.51 | 0.32 | 84 | 1012.8 |
| 20260904210818 | 59 | 247 | 5.2 | 10.4 | 0.00 | 0.51 | 0.32 | 84 | 1012.8 |
| 20260904210318 | 59 | 242 | 5.2 | 12.2 | 0.00 | 0.51 | 0.32 | 84 | 1012.7 |
| 20260904205318 | 59 | 242 | 5.2 | 11.3 | 0.00 | 0.51 | 0.32 | 85 | 1012.7 |
| 20260904204819 | 59 | 238 | 5.2 | 11.3 | 0.00 | 0.51 | 0.32 | 85 | 1012.7 |
| 20260904204318 | 59 | 247 | 6.1 | 10.4 | 0.00 | 0.51 | 0.32 | 85 | 1012.8 |
| 20260904203318 | 59 | 241 | 6.1 | 12.2 | 0.00 | 0.52 | 0.32 | 84 | 1012.8 |
| 20260904202819 | 59 | 249 | 7.8 | 12.2 | 0.00 | 0.52 | 0.32 | 84 | 1012.8 |
| 20260904202318 | 60 | 238 | 7.0 | 15.6 | 0.00 | 0.52 | 0.32 | 82 | 1012.7 |
| 20260904201819 | 60 | 229 | 8.7 | 15.6 | 0.00 | 0.52 | 0.32 | 82 | 1012.6 |
| 20260904201319 | 60 | 250 | 8.7 | 13.0 | 0.00 | 0.52 | 0.32 | 82 | 1012.6 |
| 20260904200819 | 60 | 244 | 4.3 | 12.2 | 0.00 | 0.52 | 0.32 | 82 | 1012.6 |
| 20260904200319 | 60 | 244 | 4.3 | 10.4 | 0.00 | 0.52 | 0.32 | 82 | 1012.6 |
| 20260904195319 | 60 | 230 | 6.1 | 11.3 | 0.00 | 0.53 | 0.32 | 81 | 1012.6 |
| 20260904194318 | 60 | 262 | 3.5 | 10.4 | 0.00 | 0.53 | 0.32 | 81 | 1012.7 |
| 20260904193819 | 60 | 230 | 5.2 | 8.7 | 0.00 | 0.53 | 0.32 | 80 | 1012.6 |
| 20260904193318 | 60 | 256 | 3.5 | 10.4 | 0.00 | 0.53 | 0.32 | 80 | 1012.6 |
| 20260904192819 | 60 | 219 | 5.2 | 8.7 | 0.00 | 0.53 | 0.32 | 80 | 1012.4 |
| 20260904192319 | 60 | 243 | 5.2 | 12.2 | 0.00 | 0.53 | 0.32 | 80 | 1012.4 |
| 20260904191819 | 60 | 238 | 6.1 | 10.4 | 0.00 | 0.53 | 0.32 | 79 | 1012.2 |
| 20260904191318 | 60 | 217 | 6.1 | 10.4 | 0.00 | 0.54 | 0.32 | 79 | 1012.1 |
| 20260904190818 | 60 | 227 | 5.2 | 11.3 | 0.00 | 0.54 | 0.32 | 78 | 1011.9 |
| 20260904190319 | 60 | 227 | 7.0 | 13.0 | 0.00 | 0.54 | 0.32 | 78 | 1011.9 |
| 20260904185819 | 60 | 255 | 7.0 | 15.6 | 0.00 | 0.54 | 0.32 | 78 | 1011.8 |
| 20260904185318 | 60 | 244 | 5.2 | 12.2 | 0.00 | 0.54 | 0.32 | 78 | 1011.7 |
| 20260904184819 | 60 | 234 | 5.2 | 12.2 | 0.00 | 0.54 | 0.32 | 78 | 1011.6 |
| 20260904184318 | 60 | 230 | 5.2 | 15.6 | 0.00 | 0.55 | 0.32 | 77 | 1011.6 |
| 20260904183818 | 60 | 261 | 4.3 | 8.7 | 0.00 | 0.55 | 0.32 | 77 | 1011.6 |
| 20260904183319 | 60 | 228 | 6.1 | 13.0 | 0.00 | 0.56 | 0.32 | 76 | 1011.4 |
| 20260904182818 | 60 | 234 | 7.8 | 14.8 | 0.00 | 0.56 | 0.32 | 76 | 1011.2 |
| 20260904182318 | 60 | 259 | 6.1 | 15.6 | 0.00 | 0.56 | 0.32 | 75 | 1011.2 |
| 20260904181818 | 61 | 243 | 5.2 | 11.3 | 0.00 | 0.56 | 0.32 | 75 | 1011.1 |
| 20260904181318 | 61 | 242 | 5.2 | 11.3 | 0.00 | 0.57 | 0.32 | 75 | 1011.0 |
| 20260904180319 | 61 | 239 | 5.2 | 12.2 | 0.00 | 0.57 | 0.32 | 74 | 1010.7 |
| 20260904175318 | 62 | 236 | 4.3 | 10.4 | 0.00 | 0.57 | 0.32 | 74 | 1010.5 |
| 20260904174819 | 62 | 254 | 4.3 | 13.0 | 0.00 | 0.57 | 0.32 | 74 | 1010.4 |
| 20260904174318 | 62 | 247 | 5.2 | 13.0 | 0.00 | 0.57 | 0.32 | 74 | 1010.3 |
| 20260904173819 | 62 | 242 | 7.0 | 14.8 | 0.00 | 0.57 | 0.32 | 73 | 1010.2 |
| 20260904173318 | 62 | 244 | 5.2 | 10.4 | 0.00 | 0.57 | 0.32 | 73 | 1010.1 |
| 20260904172318 | 62 | 243 | 8.7 | 13.0 | 0.00 | 0.57 | 0.32 | 71 | 1009.9 |
| 20260904171818 | 62 | 243 | 6.1 | 17.4 | 0.00 | 0.57 | 0.32 | 71 | 1009.9 |
| 20260904171320 | 63 | 257 | 7.0 | 13.0 | 0.00 | 0.57 | 0.32 | 71 | 1009.8 |
| 20260904170819 | 63 | 241 | 6.1 | 13.9 | 0.00 | 0.57 | 0.32 | 70 | 1009.9 |
| 20260904170318 | 63 | 261 | 5.2 | 13.0 | 0.00 | 0.57 | 0.32 | 70 | 1009.7 |
| 20260904165818 | 63 | 266 | 7.0 | 17.4 | 0.00 | 0.57 | 0.32 | 70 | 1009.6 |
| 20260904164819 | 63 | 236 | 6.1 | 14.8 | 0.00 | 0.57 | 0.32 | 69 | 1009.5 |
| 20260904164318 | 63 | 248 | 6.1 | 17.4 | 0.00 | 0.57 | 0.32 | 69 | 1009.4 |
| 20260904163818 | 63 | 252 | 6.1 | 13.9 | 0.00 | 0.57 | 0.32 | 70 | 1009.4 |
| 20260904163319 | 63 | 246 | 6.1 | 13.9 | 0.00 | 0.57 | 0.32 | 70 | 1009.2 |
| 20260904162318 | 63 | 259 | 6.1 | 14.8 | 0.00 | 0.57 | 0.32 | 70 | 1009.1 |
| 20260904161819 | 63 | 244 | 8.7 | 14.8 | 0.00 | 0.57 | 0.32 | 70 | 1008.8 |
| 20260904160819 | 63 | 246 | 8.7 | 15.6 | 0.00 | 0.57 | 0.32 | 70 | 1008.6 |
| 20260904160318 | 63 | 242 | 9.6 | 17.4 | 0.00 | 0.57 | 0.32 | 70 | 1008.6 |
| 20260904155818 | 63 | 254 | 7.8 | 15.6 | 0.00 | 0.57 | 0.32 | 70 | 1008.7 |
| 20260904155318 | 63 | 245 | 7.8 | 15.6 | 0.00 | 0.57 | 0.32 | 70 | 1008.7 |
| 20260904154818 | 63 | 259 | 8.7 | 13.9 | 0.00 | 0.57 | 0.32 | 71 | 1008.6 |
| 20260904154318 | 63 | 253 | 7.8 | 18.2 | 0.00 | 0.57 | 0.32 | 72 | 1008.6 |
| 20260904153818 | 62 | 247 | 7.8 | 17.4 | 0.00 | 0.57 | 0.32 | 72 | 1008.5 |
| 20260904152818 | 62 | 247 | 10.4 | 20.9 | 0.00 | 0.57 | 0.32 | 71 | 1008.4 |
| 20260904152318 | 63 | 260 | 8.7 | 15.6 | 0.00 | 0.57 | 0.32 | 71 | 1008.4 |
| 20260904151319 | 62 | 251 | 10.4 | 19.1 | 0.00 | 0.57 | 0.32 | 72 | 1008.4 |
| 20260904150818 | 62 | 255 | 11.3 | 20.0 | 0.00 | 0.57 | 0.32 | 74 | 1008.4 |
| 20260904145818 | 62 | 242 | 11.3 | 18.2 | 0.00 | 0.57 | 0.32 | 74 | 1008.5 |
| 20260904145318 | 61 | 257 | 12.2 | 18.2 | 0.00 | 0.57 | 0.32 | 74 | 1008.6 |
| 20260904144819 | 62 | 243 | 12.2 | 22.6 | 0.00 | 0.57 | 0.32 | 73 | 1008.4 |
| 20260904144318 | 62 | 243 | 10.4 | 18.2 | 0.00 | 0.57 | 0.32 | 73 | 1008.5 |
| 20260904143819 | 62 | 242 | 8.7 | 21.7 | 0.00 | 0.57 | 0.32 | 73 | 1008.5 |
| 20260904143318 | 62 | 245 | 8.7 | 14.8 | 0.00 | 0.57 | 0.32 | 73 | 1008.5 |
| 20260904142818 | 62 | 246 | 8.7 | 17.4 | 0.00 | 0.57 | 0.32 | 72 | 1008.6 |
| 20260904142318 | 62 | 251 | 9.6 | 20.0 | 0.00 | 0.57 | 0.32 | 73 | 1008.5 |
| 20260904141818 | 61 | 261 | 9.6 | 17.4 | 0.00 | 0.57 | 0.32 | 75 | 1008.7 |
| 20260904141318 | 61 | 241 | 8.7 | 17.4 | 0.00 | 0.57 | 0.32 | 75 | 1008.9 |
| 20260904140820 | 61 | 247 | 10.4 | 15.6 | 0.00 | 0.57 | 0.32 | 75 | 1008.7 |
| 20260904140317 | 61 | 247 | 8.7 | 18.2 | 0.00 | 0.57 | 0.32 | 74 | 1008.6 |
| 20260904135818 | 61 | 246 | 11.3 | 21.7 | 0.00 | 0.57 | 0.32 | 74 | 1008.5 |
| 20260904135318 | 61 | 239 | 9.6 | 18.2 | 0.00 | 0.57 | 0.32 | 74 | 1008.5 |
| 20260904134818 | 61 | 258 | 9.6 | 14.8 | 0.00 | 0.57 | 0.32 | 74 | 1008.4 |
| 20260904134318 | 61 | 243 | 11.3 | 17.4 | 0.00 | 0.57 | 0.32 | 73 | 1008.8 |
| 20260904133818 | 61 | 239 | 9.6 | 19.1 | 0.00 | 0.57 | 0.32 | 74 | 1008.5 |
| 20260904133318 | 61 | 258 | 7.8 | 19.1 | 0.00 | 0.57 | 0.32 | 75 | 1008.5 |
| 20260904132820 | 61 | 256 | 11.3 | 18.2 | 0.00 | 0.57 | 0.32 | 75 | 1008.5 |
| 20260904132318 | 61 | 249 | 8.7 | 14.8 | 0.00 | 0.57 | 0.32 | 77 | 1008.5 |
| 20260904131818 | 61 | 247 | 10.4 | 19.1 | 0.00 | 0.57 | 0.32 | 78 | 1008.4 |
| 20260904131318 | 60 | 234 | 12.2 | 19.1 | 0.00 | 0.57 | 0.32 | 78 | 1008.4 |
| 20260904130817 | 61 | 242 | 9.6 | 17.4 | 0.00 | 0.57 | 0.32 | 79 | 1008.4 |
| 20260904125819 | 61 | 238 | 7.8 | 15.6 | 0.00 | 0.57 | 0.32 | 78 | 1008.2 |
| 20260904125318 | 61 | 249 | 10.4 | 19.1 | 0.00 | 0.57 | 0.32 | 77 | 1008.1 |
| 20260904124819 | 61 | 254 | 11.3 | 18.2 | 0.00 | 0.57 | 0.32 | 78 | 1008.0 |
| 20260904123818 | 61 | 256 | 8.7 | 15.6 | 0.02 | 0.57 | 0.32 | 78 | 1007.9 |
| 20260904122318 | 60 | 244 | 8.7 | 17.4 | 0.02 | 0.57 | 0.32 | 80 | 1007.9 |
| 20260904121819 | 60 | 245 | 7.8 | 17.4 | 0.02 | 0.57 | 0.32 | 79 | 1007.9 |
| 20260904121318 | 61 | 236 | 7.8 | 15.6 | 0.02 | 0.57 | 0.32 | 79 | 1007.9 |
| 20260904120818 | 60 | 251 | 10.4 | 19.1 | 0.02 | 0.57 | 0.32 | 80 | 1007.8 |
| 20260904120318 | 60 | 257 | 10.4 | 18.2 | 0.02 | 0.57 | 0.32 | 84 | 1007.6 |
| 20260904114818 | 59 | 258 | 8.7 | 17.4 | 0.02 | 0.57 | 0.32 | 84 | 1007.3 |
| 20260904113819 | 61 | 258 | 8.7 | 13.9 | 0.00 | 0.56 | 0.31 | 75 | 1007.2 |
| 20260904113319 | 62 | 249 | 10.4 | 18.2 | 0.00 | 0.56 | 0.31 | 74 | 1007.1 |
| 20260904112318 | 61 | 234 | 8.7 | 13.9 | 0.00 | 0.56 | 0.31 | 75 | 1006.7 |
| 20260904111818 | 61 | 243 | 8.7 | 19.1 | 0.00 | 0.56 | 0.31 | 75 | 1006.8 |
| 20260904111318 | 61 | 241 | 8.7 | 17.4 | 0.00 | 0.56 | 0.31 | 75 | 1006.8 |
| 20260904110820 | 61 | 247 | 7.8 | 13.9 | 0.00 | 0.56 | 0.31 | 75 | 1006.7 |
| 20260904110319 | 61 | 248 | 8.7 | 17.4 | 0.00 | 0.56 | 0.31 | 76 | 1006.5 |
| 20260904105818 | 61 | 251 | 7.0 | 17.4 | 0.00 | 0.56 | 0.31 | 75 | 1006.5 |
| 20260904105318 | 61 | 244 | 8.7 | 17.4 | 0.00 | 0.56 | 0.31 | 76 | 1006.6 |
| 20260904104818 | 61 | 253 | 8.7 | 17.4 | 0.00 | 0.56 | 0.31 | 77 | 1006.5 |
| 20260904104318 | 61 | 244 | 9.6 | 17.4 | 0.00 | 0.56 | 0.31 | 76 | 1006.5 |
| 20260904103317 | 61 | 251 | 7.8 | 17.4 | 0.00 | 0.56 | 0.31 | 77 | 1006.5 |
| 20260904102818 | 61 | 249 | 7.8 | 17.4 | 0.00 | 0.56 | 0.31 | 77 | 1006.6 |
| 20260904102318 | 61 | 244 | 9.6 | 17.4 | 0.00 | 0.56 | 0.31 | 76 | 1006.5 |
| 20260904101819 | 61 | 249 | 7.8 | 19.1 | 0.00 | 0.56 | 0.31 | 76 | 1006.4 |
| 20260904101318 | 61 | 240 | 10.4 | 19.1 | 0.00 | 0.56 | 0.31 | 77 | 1006.2 |
| 20260904100818 | 61 | 249 | 8.7 | 17.4 | 0.00 | 0.56 | 0.31 | 77 | 1006.3 |
| 20260904100317 | 61 | 248 | 8.7 | 19.1 | 0.00 | 0.56 | 0.31 | 77 | 1006.2 |
| 20260904095818 | 61 | 254 | 8.7 | 20.0 | 0.00 | 0.56 | 0.31 | 77 | 1006.0 |
| 20260904095318 | 60 | 241 | 9.6 | 18.2 | 0.00 | 0.56 | 0.31 | 78 | 1006.0 |
| 20260904094318 | 60 | 247 | 6.1 | 25.2 | 0.00 | 0.56 | 0.31 | 81 | 1005.9 |